• In Belarus
  • List of Countries
  • For 7 days
  • Water Temperature
  • Satellite Maps
  • Weather Map
  • Weather Widgets
  • user-avatar
    Login

    Hourly Weather Shumen

    Today, 23 October, Tuesday

    Time Temperature Precipitation Wind Pressure Humidity
    00:00 +10°C° 0 mm 1 mps 734 mmHg 62%
    01:00 +9°C° 0 mm 1 mps 734 mmHg 62%
    02:00 +9°C° 0 mm 1 mps 734 mmHg 62%
    03:00 +9°C° 0 mm 1 mps 734 mmHg 63%
    04:00 +8°C° 0 mm 1 mps 733 mmHg 64%
    05:00 +8°C° 0 mm 1 mps 733 mmHg 65%
    06:00 +9°C° 0 mm 1 mps 733 mmHg 63%
    07:00 +9°C° 0 mm 1 mps 733 mmHg 60%
    08:00 +10°C° 0 mm 1 mps 734 mmHg 58%
    09:00 +12°C° 0 mm 1 mps 734 mmHg 52%
    10:00 +14°C° 0 mm 1 mps 734 mmHg 47%
    11:00 +16°C° 0 mm 1 mps 734 mmHg 41%
    12:00 +16°C° 0 mm 1 mps 733 mmHg 39%
    13:00 +18°C° 0 mm 1 mps 733 mmHg 38%
    14:00 +18°C° 0 mm 2 mps 732 mmHg 36%
    15:00 +18°C° 0 mm 1 mps 732 mmHg 39%
    16:00 +16°C° 0 mm 1 mps 731 mmHg 42%
    17:00 +15°C° 0 mm 1 mps 730 mmHg 45%
    18:00 +14°C° 0 mm 1 mps 730 mmHg 48%
    19:00 +13°C° 0 mm 2 mps 730 mmHg 50%
    20:00 +12°C° 0 mm 2 mps 730 mmHg 53%
    21:00 +10°C° 0 mm 2 mps 730 mmHg 53%
    22:00 +10°C° 0 mm 3 mps 729 mmHg 54%
    23:00 +10°C° 0 mm 3 mps 729 mmHg 54%

    Tomorrow, 24 October, Wednesday

    Time Temperature Precipitation Wind Pressure Humidity
    00:00 +10°C° 0 mm 3 mps 728 mmHg 57%
    01:00 +8°C° 0 mm 4 mps 728 mmHg 60%
    02:00 +8°C° 0 mm 4 mps 727 mmHg 62%
    03:00 +8°C° 0 mm 4 mps 727 mmHg 64%
    04:00 +8°C° 0 mm 5 mps 726 mmHg 66%
    05:00 +8°C° 0 mm 5 mps 725 mmHg 67%
    06:00 +8°C° 0 mm 6 mps 725 mmHg 65%
    07:00 +9°C° 0 mm 6 mps 725 mmHg 62%
    08:00 +9°C° 0 mm 7 mps 724 mmHg 59%
    09:00 +11°C° 0 mm 8 mps 724 mmHg 52%
    10:00 +13°C° 0 mm 9 mps 723 mmHg 46%
    11:00 +16°C° 0 mm 10 mps 723 mmHg 40%
    12:00 +17°C° 0 mm 10 mps 722 mmHg 38%
    13:00 +17°C° 0 mm 10 mps 721 mmHg 37%
    14:00 +18°C° 0 mm 11 mps 720 mmHg 35%
    15:00 +17°C° 0 mm 10 mps 719 mmHg 36%
    16:00 +17°C° 0 mm 9 mps 719 mmHg 37%
    17:00 +16°C° 0 mm 7 mps 719 mmHg 38%
    18:00 +13°C° 0.3 mm 8 mps 719 mmHg 44%
    19:00 +12°C° 0.3 mm 9 mps 720 mmHg 50%
    20:00 +10°C° 0.3 mm 9 mps 721 mmHg 56%
    21:00 +9°C° 0.1 mm 8 mps 722 mmHg 49%
    22:00 +8°C° 0.1 mm 7 mps 723 mmHg 43%
    23:00 +5°C° 0.1 mm 6 mps 724 mmHg 36%

    Day after tomorrow, 25 October, Thursday

    Time Temperature Precipitation Wind Pressure Humidity
    00:00 +5°C° 0 mm 6 mps 724 mmHg 40%
    01:00 +5°C° 0 mm 5 mps 724 mmHg 44%
    02:00 +5°C° 0 mm 5 mps 724 mmHg 48%
    03:00 +3°C° 0 mm 5 mps 724 mmHg 49%
    04:00 +3°C° 0 mm 6 mps 724 mmHg 50%
    05:00 +3°C° 0 mm 7 mps 724 mmHg 51%
    06:00 +3°C° 0 mm 7 mps 725 mmHg 50%
    07:00 +2°C° 0 mm 8 mps 725 mmHg 48%
    08:00 +2°C° 0 mm 8 mps 726 mmHg 46%
    09:00 +5°C° 0 mm 8 mps 726 mmHg 42%
    10:00 +6°C° 0 mm 8 mps 727 mmHg 39%
    11:00 +7°C° 0 mm 8 mps 727 mmHg 35%
    12:00 +9°C° 0 mm 8 mps 727 mmHg 34%
    13:00 +9°C° 0 mm 8 mps 727 mmHg 33%
    14:00 +10°C° 0 mm 8 mps 727 mmHg 31%
    15:00 +9°C° 0 mm 7 mps 727 mmHg 33%
    16:00 +8°C° 0 mm 6 mps 727 mmHg 34%
    17:00 +8°C° 0 mm 5 mps 727 mmHg 36%
    18:00 +7°C° 0 mm 5 mps 727 mmHg 38%
    19:00 +7°C° 0 mm 5 mps 727 mmHg 40%
    20:00 +6°C° 0 mm 4 mps 728 mmHg 42%
    21:00 +6°C° 0 mm 4 mps 728 mmHg 44%
    22:00 +6°C° 0 mm 4 mps 728 mmHg 46%
    23:00 +6°C° 0 mm 4 mps 728 mmHg 49%

    26 October, Friday

    Time Temperature Precipitation Wind Pressure Humidity
    00:00 +6°C° 0 mm 4 mps 727 mmHg 53%
    01:00 +6°C° 0 mm 4 mps 727 mmHg 57%
    02:00 +6°C° 0 mm 4 mps 727 mmHg 61%
    03:00 +6°C° 0 mm 4 mps 727 mmHg 63%
    04:00 +6°C° 0 mm 5 mps 727 mmHg 66%
    05:00 +6°C° 0 mm 5 mps 727 mmHg 68%
    06:00 +7°C° 0 mm 4 mps 728 mmHg 68%
    07:00 +7°C° 0 mm 4 mps 729 mmHg 67%
    08:00 +8°C° 0 mm 4 mps 729 mmHg 67%
    09:00 +11°C° 0 mm 4 mps 730 mmHg 61%
    10:00 +12°C° 0 mm 4 mps 730 mmHg 54%
    11:00 +14°C° 0 mm 5 mps 731 mmHg 48%
    12:00 +15°C° 0 mm 4 mps 731 mmHg 46%
    13:00 +17°C° 0 mm 4 mps 731 mmHg 43%
    14:00 +17°C° 0 mm 4 mps 731 mmHg 40%
    15:00 +16°C° 0 mm 3 mps 731 mmHg 43%
    16:00 +15°C° 0 mm 2 mps 731 mmHg 46%
    17:00 +14°C° 0 mm 1 mps 731 mmHg 50%
    18:00 +14°C° 0 mm 1 mps 731 mmHg 52%
    19:00 +13°C° 0 mm 2 mps 731 mmHg 55%
    20:00 +12°C° 0 mm 2 mps 731 mmHg 58%
    21:00 +12°C° 0 mm 2 mps 731 mmHg 60%
    22:00 +10°C° 0 mm 2 mps 732 mmHg 61%
    23:00 +10°C° 0 mm 2 mps 732 mmHg 63%

    27 October, Saturday

    Time Temperature Precipitation Wind Pressure Humidity
    00:00 +10°C° 0 mm 2 mps 731 mmHg 63%
    01:00 +10°C° 0 mm 2 mps 731 mmHg 63%
    02:00 +9°C° 0 mm 2 mps 731 mmHg 63%
    03:00 +9°C° 0 mm 2 mps 731 mmHg 63%
    04:00 +9°C° 0 mm 2 mps 731 mmHg 64%
    05:00 +9°C° 0 mm 3 mps 731 mmHg 64%
    06:00 +9°C° 0 mm 3 mps 731 mmHg 64%
    07:00 +10°C° 0 mm 3 mps 731 mmHg 64%
    08:00 +10°C° 0 mm 3 mps 731 mmHg 64%
    09:00 +13°C° 0 mm 3 mps 731 mmHg 57%
    10:00 +15°C° 0 mm 4 mps 731 mmHg 49%
    11:00 +19°C° 0 mm 4 mps 731 mmHg 42%
    12:00 +20°C° 0 mm 4 mps 731 mmHg 39%
    13:00 +21°C° 0 mm 4 mps 730 mmHg 37%
    14:00 +22°C° 0 mm 4 mps 730 mmHg 35%
    15:00 +21°C° 0 mm 4 mps 730 mmHg 40%
    16:00 +20°C° 0 mm 4 mps 729 mmHg 45%
    17:00 +18°C° 0 mm 3 mps 729 mmHg 50%
    18:00 +18°C° 0 mm 4 mps 729 mmHg 57%
    19:00 +17°C° 0 mm 4 mps 729 mmHg 64%
    20:00 +15°C° 0 mm 4 mps 729 mmHg 71%
    21:00 +14°C° 0 mm 4 mps 729 mmHg 76%
    22:00 +14°C° 0 mm 4 mps 729 mmHg 81%
    23:00 +13°C° 0 mm 4 mps 729 mmHg 86%

    28 October, Sunday

    Time Temperature Precipitation Wind Pressure Humidity
    00:00 +13°C° 0 mm 5 mps 728 mmHg 86%
    01:00 +13°C° 0 mm 5 mps 728 mmHg 86%
    02:00 +13°C° 0 mm 5 mps 728 mmHg 87%
    03:00 +13°C° 0 mm 5 mps 728 mmHg 86%
    04:00 +14°C° 0 mm 5 mps 728 mmHg 86%
    05:00 +14°C° 0 mm 6 mps 728 mmHg 85%
    06:00 +14°C° 0 mm 6 mps 728 mmHg 83%
    07:00 +15°C° 0 mm 6 mps 728 mmHg 80%
    08:00 +15°C° 0 mm 7 mps 729 mmHg 78%
    09:00 +17°C° 0 mm 7 mps 729 mmHg 68%
    10:00 +20°C° 0 mm 8 mps 729 mmHg 59%
    11:00 +22°C° 0 mm 8 mps 729 mmHg 49%
    12:00 +23°C° 0 mm 8 mps 729 mmHg 47%
    13:00 +24°C° 0 mm 8 mps 729 mmHg 44%
    14:00 +24°C° 0 mm 8 mps 729 mmHg 41%
    15:00 +23°C° 0 mm 7 mps 728 mmHg 46%
    16:00 +22°C° 0 mm 6 mps 728 mmHg 50%
    17:00 +20°C° 0 mm 6 mps 728 mmHg 55%
    18:00 +19°C° 0 mm 5 mps 728 mmHg 60%
    19:00 +17°C° 0 mm 5 mps 729 mmHg 65%
    20:00 +16°C° 0 mm 5 mps 729 mmHg 70%
    21:00 +16°C° 0 mm 5 mps 729 mmHg 72%
    22:00 +15°C° 0 mm 5 mps 729 mmHg 74%
    23:00 +15°C° 0 mm 5 mps 729 mmHg 76%

    29 October, Monday

    Time Temperature Precipitation Wind Pressure Humidity
    00:00 +14°C° 0 mm 5 mps 729 mmHg 78%
    01:00 +14°C° 0 mm 5 mps 729 mmHg 80%
    02:00 +14°C° 0 mm 5 mps 728 mmHg 82%
    03:00 +14°C° 0 mm 5 mps 728 mmHg 83%
    04:00 +13°C° 0 mm 5 mps 728 mmHg 84%
    05:00 +13°C° 0 mm 5 mps 728 mmHg 85%
    06:00 +14°C° 0 mm 5 mps 728 mmHg 83%
    07:00 +14°C° 0 mm 6 mps 728 mmHg 81%
    08:00 +15°C° 0 mm 6 mps 729 mmHg 79%
    09:00 +16°C° 0 mm 7 mps 729 mmHg 71%
    10:00 +18°C° 0 mm 8 mps 729 mmHg 62%
    11:00 +21°C° 0 mm 8 mps 729 mmHg 54%
    12:00 +21°C° 0 mm 8 mps 729 mmHg 53%
    13:00 +22°C° 0 mm 8 mps 729 mmHg 51%
    14:00 +22°C° 0 mm 8 mps 728 mmHg 49%
    15:00 +21°C° 0 mm 7 mps 728 mmHg 52%
    16:00 +20°C° 0 mm 6 mps 728 mmHg 54%
    17:00 +19°C° 0 mm 6 mps 728 mmHg 56%
    18:00 +19°C° 0 mm 6 mps 728 mmHg 58%
    19:00 +18°C° 0 mm 7 mps 728 mmHg 60%
    20:00 +17°C° 0 mm 7 mps 728 mmHg 62%
    21:00 +17°C° 0 mm 7 mps 728 mmHg 63%
    22:00 +17°C° 0 mm 7 mps 728 mmHg 64%
    23:00 +17°C° 0 mm 7 mps 728 mmHg 66%
    Show more